Wetbulb
67.16 69.85 70.12 64.65 55.97 55.91 52.21 52.20 56.36 54.35 55.05 58.50 61.04 59.11 59.06 61.04 57.66 55.54 68.56 70.00 70.10 69.81 70.43 69.96 70.70 70.77 70.53 70.36 69.87 69.61 69.30 68.82 68.48 68.32 68.30 68.20 68.00 68.00 67.50 67.43 67.55 69.16 69.34 68.29 67.14 66.49 66.20 65.49 64.95
69.36 67.03 65.01 62.55 53.56 50.76 51.51 55.35 53.53 55.93 58.27 59.81 60.11 59.73 59.17 58.83 63.80 64.74 66.96 70.13 70.41 70.08 70.15 69.56 69.76 70.33 70.35 70.42 70.19 69.78 69.61 69.01 68.58 68.14 67.53 67.11 66.40 66.52 66.71 66.77 66.71 66.68 67.74 68.76 67.77 66.33 65.52 65.10 64.97
67.70 65.16 61.42 58.29 54.64 50.11 51.60 54.90 56.28 57.28 59.22 58.74 58.14 60.51 59.34 59.84 64.50 66.24 69.72 70.32 70.60 69.99 69.50 69.54 69.69 69.99 69.76 69.83 70.08 70.06 69.98 69.41 68.86 68.21 67.10 66.48 65.53 65.49 65.29 66.31 66.37 65.99 66.08 67.99 67.55 66.69 65.38 64.88 64.58
63.58 62.60 61.37 54.74 52.76 54.69 54.40 56.20 57.25 56.40 57.08 58.26 57.64 55.78 61.03 65.53 65.74 68.36 70.17 70.38 70.03 69.02 69.38 68.62 69.89 69.64 69.24 69.02 69.46 69.88 70.20 69.92 68.81 67.67 66.89 66.04 65.94 65.50 65.33 65.39 64.77 65.88 65.36 65.44 67.65 66.41 65.94 65.16 64.57
63.17 61.48 54.75 53.21 53.60 54.79 56.53 57.87 57.55 55.91 55.82 56.28 56.35 54.33 58.44 65.44 68.33 69.48 69.72 69.95 69.28 68.59 69.26 69.31 69.70 69.98 69.50 68.86 68.99 69.38 69.91 69.32 68.39 67.85 67.12 66.58 65.49 65.15 65.13 65.41 65.40 64.78 64.07 64.49 64.03 64.93 66.15 65.89 65.21
59.01 60.00 52.18 50.60 53.23 54.75 56.76 58.23 57.81 56.43 57.37 57.85 55.81 55.46 58.65 66.64 67.47 69.03 69.70 69.57 70.13 68.79 69.19 69.36 67.31 68.60 69.30 69.36 69.31 70.07 70.03 69.26 68.64 68.23 67.87 67.19 66.68 65.47 65.04 65.14 64.78 64.58 63.99 63.53 63.78 63.02 63.01 63.50 63.69
57.93 55.71 52.06 53.06 53.41 53.34 55.25 58.79 57.03 57.18 57.16 56.18 56.08 53.61 60.20 63.99 67.93 69.50 69.54 69.87 69.94 70.19 69.99 70.21 69.62 68.03 66.09 67.72 68.06 68.99 69.63 69.63 69.45 68.99 68.78 68.36 67.88 67.34 66.48 66.14 65.07 64.72 64.36 63.71 63.72 63.63 62.61 62.63 63.01
59.25 56.98 52.82 53.91 52.66 52.62 56.37 57.26 59.00 58.03 56.72 58.58 58.70 53.19 56.70 63.32 67.87 69.31 69.31 69.25 69.52 69.91 69.96 69.96 70.06 69.59 69.38 68.02 65.19 66.23 67.81 68.14 68.01 67.42 66.63 65.32 66.11 66.54 66.18 65.37 65.88 65.70 65.61 65.18 64.67 64.52 64.08 63.77 63.01
59.11 53.43 51.02 52.26 53.29 54.39 57.14 55.94 59.22 60.37 58.35 58.43 59.49 58.97 61.72 65.90 67.74 67.79 67.57 67.85 68.28 68.80 69.44 69.91 69.76 69.76 69.79 69.40 66.20 63.81 64.75 65.70 65.77 65.63 63.91 64.64 67.31 67.05 66.39 64.67 65.72 66.55 66.60 66.55 66.35 66.16 65.64 65.10 64.44
56.02 53.11 52.47 56.54 57.11 55.81 56.54 57.08 57.54 57.22 56.84 57.78 59.64 61.52 64.30 65.87 66.14 65.63 65.45 65.34 66.48 67.20 68.30 69.19 69.45 69.37 69.46 68.88 68.62 67.35 67.16 66.58 66.54 66.35 66.40 65.83 67.17 67.45 66.26 62.85 63.61 64.75 64.73 65.75 66.34 66.54 65.70 63.50 64.50
54.53 53.04 54.10 55.05 57.14 58.44 56.56 56.92 58.74 57.06 55.19 57.76 57.71 59.28 63.69 64.55 64.95 65.07 65.27 65.60 66.11 67.43 68.14 68.67 69.05 69.40 69.11 68.85 68.80 68.42 67.95 67.68 67.31 67.02 66.72 66.67 66.31 66.62 66.35 66.03 66.10 66.09 61.59 65.67 65.09 65.15 64.85 65.13 65.36
51.93 53.03 53.39 53.57 54.67 57.35 55.98 58.43 56.69 57.87 57.64 60.35 60.24 61.15 63.35 63.50 63.91 64.51 64.76 65.22 65.81 66.21 67.26 68.22 68.73 68.64 68.79 68.88 68.36 68.43 67.70 67.68 67.37 67.45 67.17 66.53 66.24 66.35 66.35 66.19 66.36 67.03 66.45 66.04 66.20 65.99 66.00 65.39 65.26
52.70 52.44 53.22 53.41 54.09 56.82 58.03 56.46 56.66 57.59 58.70 60.28 61.45 61.09 61.41 62.62 63.44 64.70 65.20 65.69 66.09 65.95 66.92 67.85 68.84 68.60 68.60 68.44 68.58 68.39 68.11 67.79 67.84 67.75 67.68 67.10 66.55 66.58 66.75 66.51 66.44 66.30 66.14 65.69 65.53 65.51 65.28 65.04 64.76
52.64 52.76 53.01 53.62 53.99 54.58 54.78 55.32 55.95 58.29 59.02 59.64 60.91 60.52 61.19 61.58 62.77 63.92 64.48 64.77 65.49 66.18 66.62 67.70 68.05 68.63 68.71 68.36 68.42 68.32 68.44 68.34 68.24 68.07 67.97 67.79 67.17 66.95 66.69 66.49 66.28 66.19 66.25 65.96 65.67 65.31 65.08 64.86 64.48
52.25 50.07 52.22 53.01 53.50 52.74 55.98 51.58 53.21 57.81 58.82 58.48 59.63 61.05 61.08 61.58 62.64 62.94 64.33 64.41 65.32 65.94 66.70 66.96 67.69 68.41 68.14 68.20 68.42 68.51 68.75 68.32 68.11 68.05 68.29 68.07 67.75 67.20 66.89 66.45 66.64 66.83 67.11 66.64 66.17 65.66 65.50 65.03 64.85
49.31 49.64 46.85 51.45 52.44 52.05 53.01 49.76 55.25 56.18 57.02 57.54 58.94 60.11 60.97 61.58 62.31 63.39 64.11 64.44 65.32 65.97 66.10 66.96 67.16 67.64 68.13 68.25 68.50 68.59 68.73 68.77 68.40 68.25 68.35 68.21 67.96 67.69 67.15 67.00 66.76 67.36 67.41 66.78 65.75 65.42 64.62 64.23 63.54
47.59 43.38 45.48 46.63 51.43 51.04 51.30 51.35 52.86 54.56 54.93 56.36 57.90 59.01 60.02 60.94 62.14 63.40 64.32 64.84 65.17 65.49 65.59 65.81 66.79 66.80 67.11 67.80 68.16 68.60 68.61 68.40 68.62 68.53 68.30 68.13 67.85 67.61 67.15 67.05 67.34 67.26 67.11 65.87 64.31 63.82 63.91 63.20 63.12
41.33 42.96 45.52 45.30 47.26 48.89 48.92 49.91 50.96 52.34 52.67 54.50 56.24 56.73 56.98 57.50 59.55 62.04 62.94 63.69 64.04 64.72 65.28 65.45 65.84 66.16 66.42 67.06 67.32 67.46 67.78 67.80 68.04 68.00 68.06 67.97 67.72 67.49 67.15 66.74 66.66 66.80 66.19 65.47 64.38 63.08 63.45 64.03 63.64
46.39 43.63 43.38 47.55 47.24 46.42 47.04 48.31 50.79 52.89 52.15 52.44 53.44 54.21 54.67 55.50 57.62 58.91 59.70 60.42 60.28 60.48 60.47 60.80 60.90 62.24 63.25 63.93 63.95 64.72 65.13 65.94 66.52 67.78 67.46 66.66 65.60 64.52 64.15 64.17 63.60 63.67 63.06 63.49 63.53 62.14 61.55 62.98 64.19
44.41 42.08 41.46 44.48 46.38 45.95 47.04 45.94 49.07 50.23 50.55 51.65 52.03 52.74 53.38 54.24 55.17 56.47 57.40 58.52 58.48 58.55 59.19 59.35 59.02 59.26 60.01 60.57 61.80 62.51 62.62 63.10 63.34 63.51 61.85 61.37 61.42 61.72 61.67 61.86 61.41 61.01 60.95 60.26 60.60 60.85 60.27 62.66 63.78
43.95 42.93 43.13 41.99 44.47 45.80 44.31 43.16 46.00 49.27 49.95 51.07 51.85 52.52 53.00 53.13 53.41 54.53 55.29 55.72 56.53 56.50 57.50 57.88 58.21 58.47 58.97 59.64 59.86 59.09 58.76 58.43 58.29 59.02 59.37 60.32 60.80 61.01 61.34 61.00 60.95 60.55 60.52 59.87 60.82 61.46 61.04 60.28 62.34
40.46 46.55 45.13 43.11 41.50 37.98 44.80 36.79 45.33 47.20 46.17 46.91 48.70 50.11 51.17 51.52 50.95 50.80 51.56 52.61 53.98 54.54 55.39 56.12 56.83 56.98 57.34 57.52 56.60 56.36 56.44 56.73 58.55 58.79 59.60 59.18 58.75 58.40 58.95 59.02 59.02 59.39 60.27 60.90 61.53 62.17 61.38 60.71 59.53
42.09 46.00 44.77 44.30 41.60 40.75 41.14 37.93 42.44 46.96 44.58 45.98 48.15 47.98 48.09 49.81 50.31 50.07 50.56 51.01 52.10 53.23 52.96 54.33 55.16 54.74 53.96 53.50 53.45 54.25 54.64 55.86 56.87 57.34 57.52 57.82 57.98 57.64 57.25 56.83 56.91 57.08 57.81 58.63 59.06 58.94 59.84 60.56 59.48
45.89 43.65 42.79 42.29 40.63 33.98 39.41 38.61 39.26 42.77 42.92 44.00 45.39 47.15 48.23 48.73 49.52 50.18 50.61 50.45 51.26 52.14 51.94 52.63 52.45 52.28 51.61 51.22 51.73 52.09 52.88 53.75 54.74 56.10 56.52 56.91 57.34 57.23 56.75 55.22 54.23 54.08 53.70 54.51 56.32 57.84 58.35 58.23 58.49
43.50 39.03 31.78 30.31 30.39 28.94 38.10 37.28 39.60 42.90 43.57 44.08 45.50 46.55 48.28 48.87 49.76 49.83 50.03 50.48 50.45 50.22 50.33 50.02 50.24 50.45 49.94 49.58 50.05 50.25 50.54 51.31 52.01 53.59 55.00 55.89 56.03 56.08 55.49 54.53 52.14 52.44 53.58 54.40 55.20 55.65 55.79 55.35 55.15
39.99 38.20 32.58 24.84 26.99 30.95 35.14 30.92 37.57 44.88 46.55 46.78 46.60 47.60 47.51 48.22 49.88 50.11 50.10 50.73 50.55 49.92 49.83 49.57 48.93 48.78 48.95 48.60 48.36 48.78 48.61 48.80 49.70 50.90 52.05 53.13 53.84 54.84 55.38 52.52 51.62 52.03 51.95 51.49 51.89 52.66 53.09 53.50 52.53
39.45 35.84 39.82 32.51 30.30 30.48 35.07 38.25 42.24 44.67 44.70 45.51 45.76 45.84 47.17 48.39 49.57 49.92 50.59 50.95 50.82 50.75 50.15 49.66 49.06 48.51 48.18 48.01 47.76 47.21 47.09 46.83 46.94 48.04 49.04 49.14 50.48 50.43 49.78 49.19 48.63 49.28 49.53 48.77 48.52 49.04 49.70 50.85 50.71
41.43 43.03 33.05 35.11 26.07 24.81 31.41 34.59 35.92 40.61 42.29 44.62 44.30 45.73 47.20 48.05 48.86 49.53 49.77 50.26 50.79 50.63 50.06 49.74 49.47 48.58 48.62 48.21 47.77 46.63 46.04 46.21 45.95 45.91 45.66 46.18 47.39 47.80 47.21 46.74 46.95 47.05 47.04 46.60 46.12 46.34 47.35 47.20 47.48
37.96 37.29 38.03 37.75 34.75 27.83 26.51 32.28 41.39 41.50 43.36 43.77 45.09 46.77 47.48 48.11 49.08 49.28 49.46 50.13 50.56 50.63 50.08 49.41 49.17 48.63 48.09 48.03 47.58 46.88 46.31 45.96 45.42 44.50 44.52 44.78 45.33 45.14 44.75 44.61 44.49 44.25 44.09 44.39 43.92 44.03 44.60 44.31 44.58
41.46 38.41 38.68 33.81 30.90 33.40 31.71 32.41 41.13 42.01 43.94 45.22 45.56 45.96 47.47 48.18 49.06 49.42 49.41 49.37 49.74 49.81 49.86 49.26 48.98 48.45 48.20 47.75 46.74 46.24 46.00 45.48 44.50 44.01 44.07 44.16 43.15 43.49 42.95 42.43 42.17 42.08 41.92 42.07 41.54 41.28 41.97 41.26 41.33
MSLP
1011.49 1011.14 1010.08 1009.91 1008.98 1007.08 1006.41 1007.24 1007.44 1008.13 1008.58 1009.18 1009.11 1009.52 1009.58 1010.23 1010.72 1012.28 1013.47 1014.13 1014.35 1014.90 1016.17 1017.20 1017.70 1017.93 1018.17 1018.42 1018.69 1018.94 1019.12 1019.28 1019.41 1019.55 1019.66 1019.73 1019.81 1019.85 1019.92 1019.97 1019.98 1020.00 1019.97 1019.91 1020.25 1020.54 1020.59 1020.60 1020.58
1010.51 1010.29 1009.84 1008.05 1007.33 1005.76 1005.83 1006.91 1007.67 1008.22 1008.95 1009.80 1010.20 1010.36 1010.25 1010.97 1011.95 1013.04 1013.79 1014.29 1014.58 1015.07 1016.10 1016.90 1017.81 1018.10 1018.32 1018.55 1018.79 1019.03 1019.23 1019.41 1019.58 1019.76 1019.87 1019.96 1020.04 1020.10 1020.17 1020.26 1020.29 1020.24 1020.22 1020.25 1020.32 1020.69 1020.80 1020.83 1020.81
1010.48 1009.91 1008.47 1007.12 1006.28 1005.45 1005.48 1006.84 1007.52 1008.87 1009.69 1009.89 1010.33 1010.81 1010.77 1011.57 1012.45 1012.99 1013.60 1014.28 1014.69 1015.39 1016.31 1017.08 1017.83 1018.23 1018.48 1018.69 1018.89 1019.07 1019.24 1019.47 1019.69 1019.88 1020.05 1020.17 1020.25 1020.33 1020.42 1020.43 1020.52 1020.53 1020.57 1020.62 1020.58 1020.69 1020.91 1020.96 1020.96
1010.14 1009.38 1008.24 1007.01 1005.66 1006.06 1006.01 1006.79 1007.84 1008.96 1009.93 1010.26 1010.32 1010.67 1011.86 1012.51 1012.52 1013.08 1014.18 1014.32 1014.90 1015.74 1016.52 1017.61 1017.95 1018.29 1018.60 1018.77 1018.97 1019.14 1019.31 1019.48 1019.74 1019.95 1020.11 1020.25 1020.35 1020.47 1020.53 1020.53 1020.61 1020.69 1020.86 1020.88 1020.82 1020.85 1020.92 1021.04 1021.09
1009.99 1008.26 1007.13 1006.64 1006.03 1006.72 1006.74 1007.15 1007.94 1008.59 1009.29 1009.92 1010.44 1010.87 1011.89 1012.91 1013.38 1013.79 1014.32 1014.61 1015.08 1016.18 1016.81 1017.66 1018.10 1018.32 1018.56 1018.77 1018.95 1019.13 1019.39 1019.56 1019.74 1019.89 1020.06 1020.20 1020.36 1020.49 1020.61 1020.68 1020.80 1020.90 1020.96 1021.01 1021.04 1021.01 1021.05 1021.10 1021.12
1008.87 1007.72 1006.65 1006.15 1006.36 1007.16 1007.19 1007.61 1008.04 1008.43 1009.20 1009.93 1010.50 1010.80 1012.07 1013.25 1013.61 1013.90 1014.35 1014.64 1015.04 1016.37 1016.89 1017.56 1018.14 1018.34 1018.53 1018.71 1018.91 1019.11 1019.36 1019.57 1019.73 1019.88 1019.99 1020.07 1020.30 1020.49 1020.60 1020.70 1020.81 1020.94 1021.04 1021.06 1021.10 1021.13 1021.17 1021.22 1021.24
1008.46 1007.51 1006.37 1005.84 1006.29 1007.22 1007.53 1007.97 1008.13 1008.51 1009.25 1009.75 1010.13 1010.52 1012.09 1013.17 1013.66 1014.13 1014.41 1014.67 1015.05 1015.84 1016.40 1016.94 1017.61 1018.13 1018.56 1018.73 1018.88 1019.11 1019.31 1019.48 1019.69 1019.84 1019.97 1020.11 1020.18 1020.40 1020.56 1020.68 1020.78 1020.84 1020.95 1021.02 1021.07 1021.14 1021.18 1021.21 1021.24
1008.64 1007.68 1006.66 1005.93 1006.43 1006.99 1007.73 1008.29 1008.40 1008.65 1009.32 1010.15 1010.53 1010.23 1011.48 1012.59 1013.73 1014.22 1014.55 1014.87 1015.25 1015.77 1016.19 1016.58 1017.05 1017.65 1018.08 1018.55 1019.04 1019.23 1019.46 1019.63 1019.74 1019.85 1019.99 1020.16 1020.22 1020.34 1020.49 1020.64 1020.70 1020.75 1020.84 1020.94 1021.01 1021.07 1021.13 1021.16 1021.16
1009.05 1007.93 1006.78 1006.40 1006.40 1006.91 1007.95 1008.31 1008.96 1009.43 1009.74 1010.25 1010.91 1010.89 1011.21 1012.59 1013.70 1014.20 1014.64 1015.02 1015.34 1015.85 1016.12 1016.33 1016.70 1017.13 1017.37 1017.80 1018.51 1019.18 1019.43 1019.67 1019.84 1019.91 1019.98 1020.10 1019.86 1019.83 1020.03 1020.21 1020.38 1020.61 1020.75 1020.81 1020.85 1020.90 1020.97 1021.03 1021.01
1008.77 1007.95 1007.03 1006.43 1006.56 1007.07 1008.00 1008.19 1008.91 1009.35 1009.62 1010.09 1010.95 1011.92 1012.12 1013.17 1013.65 1014.08 1014.57 1014.91 1015.30 1015.70 1016.10 1016.30 1016.57 1016.96 1017.26 1017.57 1018.06 1018.61 1018.66 1019.07 1019.23 1019.32 1019.34 1019.66 1019.35 1019.23 1019.41 1019.76 1020.17 1020.44 1020.59 1020.68 1020.70 1020.72 1020.77 1020.88 1020.39
1009.12 1008.26 1008.21 1007.97 1007.98 1007.45 1008.04 1008.36 1008.88 1008.88 1009.24 1009.36 1010.10 1011.58 1012.52 1013.17 1013.64 1014.01 1014.42 1014.80 1015.12 1015.51 1015.93 1016.29 1016.55 1016.88 1017.18 1017.43 1017.79 1018.08 1018.25 1018.49 1018.63 1018.79 1018.95 1019.01 1019.04 1019.19 1019.42 1019.58 1019.72 1020.01 1020.18 1020.16 1020.12 1020.22 1020.29 1019.91 1019.57
1009.42 1009.49 1009.24 1009.26 1009.33 1008.36 1008.57 1008.63 1009.06 1008.96 1009.08 1009.46 1009.76 1011.18 1012.19 1012.90 1013.39 1013.84 1014.19 1014.57 1015.15 1015.39 1015.73 1016.19 1016.42 1016.78 1017.05 1017.31 1017.68 1017.62 1017.85 1018.11 1018.34 1018.51 1018.78 1018.89 1019.00 1019.09 1019.08 1019.00 1019.01 1019.14 1019.16 1019.23 1019.30 1019.19 1019.23 1019.24 1019.32
1009.62 1009.93 1009.99 1009.91 1009.82 1009.26 1009.19 1009.21 1009.05 1009.23 1009.82 1010.20 1010.35 1011.22 1011.83 1012.36 1012.94 1013.41 1013.83 1014.23 1014.69 1015.15 1015.49 1015.90 1016.29 1016.58 1016.80 1017.15 1017.18 1017.34 1017.47 1017.77 1017.97 1018.15 1018.37 1018.61 1018.66 1018.70 1018.70 1018.69 1018.73 1018.75 1018.78 1018.82 1018.87 1018.86 1018.87 1018.95 1019.04
1010.93 1010.51 1010.28 1010.16 1010.20 1010.20 1010.05 1009.85 1009.93 1009.55 1010.13 1010.28 1010.77 1011.09 1011.53 1011.96 1012.42 1013.06 1013.48 1013.83 1014.38 1014.90 1015.20 1015.57 1015.99 1016.25 1016.36 1016.66 1016.94 1016.98 1017.12 1017.26 1017.49 1017.60 1017.73 1018.08 1018.25 1018.24 1018.28 1018.32 1018.40 1018.41 1018.41 1018.39 1018.38 1018.42 1018.44 1018.53 1018.56
1011.40 1010.80 1010.53 1010.45 1010.58 1010.57 1010.33 1010.55 1009.92 1009.81 1010.25 1010.36 1010.73 1010.91 1011.28 1011.79 1012.21 1012.70 1013.26 1013.64 1014.07 1014.56 1014.96 1015.28 1015.58 1015.90 1016.21 1016.34 1016.51 1016.72 1016.73 1016.88 1016.97 1017.12 1017.31 1017.51 1017.70 1017.89 1017.91 1017.90 1017.88 1017.85 1017.89 1018.08 1018.22 1018.16 1018.17 1018.13 1018.03
1011.70 1011.35 1010.83 1010.94 1010.79 1011.19 1011.10 1009.85 1009.87 1010.52 1010.54 1010.35 1010.53 1010.71 1011.27 1011.65 1012.11 1012.49 1012.93 1013.25 1013.58 1014.00 1014.44 1014.97 1015.34 1015.58 1015.75 1015.88 1015.93 1016.09 1016.23 1016.36 1016.47 1016.57 1016.74 1016.95 1017.24 1017.39 1017.49 1017.46 1017.45 1017.44 1017.49 1017.60 1017.77 1017.96 1017.96 1018.01 1018.01
1012.33 1011.32 1011.17 1011.51 1011.50 1011.31 1011.22 1010.07 1010.70 1011.09 1010.93 1010.47 1010.59 1010.79 1011.18 1011.56 1011.93 1012.21 1012.60 1013.09 1013.47 1013.79 1014.05 1014.34 1014.86 1015.23 1015.41 1015.47 1015.54 1015.57 1015.70 1015.88 1016.02 1016.12 1016.23 1016.43 1016.69 1016.92 1017.08 1017.06 1016.96 1016.99 1016.99 1017.10 1017.46 1017.56 1017.56 1017.61 1017.65
1013.11 1012.48 1012.14 1011.76 1012.37 1011.95 1011.50 1011.05 1011.25 1011.60 1011.50 1011.03 1010.67 1010.99 1011.55 1011.87 1011.87 1011.88 1012.19 1012.75 1013.19 1013.50 1013.75 1013.95 1014.31 1014.74 1015.09 1015.22 1015.33 1015.45 1015.49 1015.59 1015.64 1015.70 1015.74 1015.93 1016.11 1016.40 1016.70 1016.81 1016.85 1016.93 1016.94 1016.91 1017.06 1017.28 1017.33 1017.14 1016.87
1013.43 1013.26 1013.17 1012.41 1013.20 1012.67 1011.85 1011.56 1011.18 1011.23 1011.71 1011.57 1011.41 1011.30 1011.48 1011.60 1011.66 1011.70 1012.05 1012.64 1013.18 1013.50 1013.83 1014.07 1014.27 1014.47 1014.87 1015.03 1015.27 1015.34 1015.21 1015.34 1015.46 1015.47 1015.74 1015.97 1016.11 1016.26 1016.46 1016.57 1016.65 1016.68 1016.86 1016.90 1016.97 1017.00 1016.86 1016.59 1016.51
1013.36 1013.66 1013.93 1014.01 1013.83 1013.11 1012.23 1011.96 1011.61 1011.56 1011.81 1011.76 1011.62 1011.46 1011.57 1011.46 1011.56 1011.82 1012.09 1012.33 1012.92 1013.42 1013.65 1013.87 1014.36 1014.40 1014.54 1014.95 1015.14 1015.21 1015.15 1015.18 1015.05 1015.37 1015.91 1016.18 1016.27 1016.39 1016.58 1016.81 1017.04 1017.25 1017.35 1017.41 1017.41 1017.19 1016.84 1016.48 1016.37
1013.58 1013.45 1013.58 1014.08 1014.25 1013.81 1013.06 1011.93 1011.23 1010.97 1011.57 1011.65 1011.80 1011.75 1011.74 1011.82 1011.94 1012.22 1012.52 1012.95 1013.29 1013.51 1013.75 1013.93 1014.31 1014.53 1014.73 1015.09 1015.22 1015.64 1015.80 1015.93 1015.89 1015.86 1015.99 1016.03 1016.27 1016.47 1016.67 1016.79 1016.83 1017.05 1017.18 1017.15 1017.13 1017.04 1016.88 1016.49 1016.07
1013.88 1014.05 1014.25 1014.47 1014.53 1013.89 1013.67 1011.54 1010.06 1010.37 1011.37 1011.83 1011.59 1011.86 1012.02 1012.20 1012.69 1013.01 1013.32 1013.61 1013.87 1014.25 1014.49 1014.66 1014.77 1014.79 1015.12 1015.37 1015.61 1015.61 1015.60 1015.43 1015.28 1015.70 1015.95 1016.25 1016.43 1016.48 1016.57 1016.69 1016.78 1016.81 1016.94 1016.83 1016.71 1016.68 1016.70 1016.57 1016.03
1014.54 1014.76 1014.84 1015.00 1014.88 1014.64 1014.01 1013.32 1011.02 1010.60 1010.86 1011.07 1011.28 1011.80 1012.67 1013.18 1013.43 1013.60 1013.90 1014.45 1014.81 1015.00 1015.19 1015.09 1015.21 1015.52 1015.77 1015.97 1016.17 1016.15 1016.04 1015.97 1015.89 1015.90 1016.06 1016.15 1016.23 1016.37 1016.43 1016.55 1016.63 1016.76 1016.82 1016.82 1016.77 1016.68 1016.52 1016.32 1016.15
1015.40 1015.53 1015.67 1015.84 1015.64 1015.10 1014.18 1013.06 1010.93 1010.30 1010.38 1010.84 1012.05 1012.57 1013.07 1013.51 1013.86 1014.07 1014.42 1014.97 1015.04 1015.37 1015.52 1015.49 1015.50 1015.87 1016.23 1016.40 1016.33 1016.35 1016.33 1016.34 1016.18 1015.94 1015.90 1015.83 1015.81 1015.99 1016.21 1016.55 1016.63 1016.65 1016.78 1016.81 1016.67 1016.51 1016.33 1016.26 1016.18
1015.36 1015.54 1016.05 1016.40 1016.07 1014.58 1013.81 1012.94 1011.46 1010.69 1010.89 1011.36 1012.01 1012.57 1013.22 1013.79 1014.11 1014.49 1014.63 1014.88 1015.18 1015.57 1015.91 1015.96 1015.88 1016.09 1016.49 1016.68 1016.73 1016.64 1016.65 1016.57 1016.39 1016.17 1015.89 1015.79 1015.69 1015.84 1016.14 1016.65 1016.90 1016.65 1016.25 1016.13 1016.15 1016.26 1016.37 1016.25 1016.05
1015.20 1015.05 1015.31 1015.49 1015.33 1014.44 1014.70 1012.96 1011.25 1010.91 1011.05 1011.86 1012.67 1012.96 1013.40 1013.77 1014.41 1014.58 1014.80 1015.07 1015.27 1015.69 1016.13 1016.29 1016.27 1016.41 1016.75 1016.80 1016.73 1016.76 1016.81 1016.77 1016.65 1016.57 1016.53 1016.33 1016.16 1016.07 1016.13 1016.48 1016.71 1016.53 1016.27 1016.14 1015.97 1016.07 1016.00 1016.17 1016.08
1015.88 1015.78 1016.21 1016.15 1016.51 1015.28 1013.80 1012.65 1012.01 1011.36 1011.37 1012.01 1012.58 1012.99 1013.30 1013.81 1014.37 1014.54 1014.81 1015.13 1015.42 1015.75 1016.21 1016.42 1016.41 1016.41 1016.66 1016.96 1016.95 1016.81 1016.91 1016.89 1016.97 1016.85 1016.82 1016.73 1016.65 1016.58 1016.60 1016.69 1016.62 1016.55 1016.45 1016.31 1016.05 1016.06 1015.89 1015.85 1015.98
1015.91 1015.96 1016.55 1016.47 1016.28 1015.48 1013.51 1012.23 1011.48 1011.42 1011.27 1011.76 1012.42 1012.73 1013.23 1013.88 1014.27 1014.64 1015.04 1015.28 1015.54 1015.85 1016.25 1016.18 1016.18 1016.56 1016.67 1016.68 1016.69 1016.82 1016.93 1016.90 1016.89 1016.96 1017.06 1016.89 1016.61 1016.47 1016.45 1016.51 1016.45 1016.54 1016.43 1016.45 1016.39 1016.09 1015.85 1015.79 1015.63
1016.25 1015.94 1016.07 1016.00 1016.18 1015.49 1014.00 1012.54 1011.73 1011.54 1011.53 1011.75 1012.09 1012.70 1013.05 1013.83 1014.23 1014.79 1014.92 1015.18 1015.49 1015.59 1016.21 1016.36 1016.07 1016.39 1016.50 1016.75 1016.63 1016.65 1016.52 1016.64 1016.79 1016.74 1016.56 1016.62 1016.55 1016.34 1016.35 1016.41 1016.29 1016.33 1016.37 1016.08 1015.89 1015.69 1015.65 1015.54 1015.42
1015.81 1015.70 1015.99 1016.09 1016.77 1016.28 1015.25 1013.49 1013.06 1012.78 1012.19 1012.34 1012.86 1013.30 1013.53 1014.11 1014.47 1014.87 1014.89 1015.18 1015.29 1015.43 1015.89 1016.26 1016.03 1016.57 1016.47 1016.51 1016.84 1016.62 1016.52 1016.37 1016.74 1016.82 1016.42 1016.40 1016.38 1016.33 1016.30 1016.31 1016.12 1016.08 1016.07 1015.90 1015.76 1015.67 1015.41 1015.23 1015.03
Wind_Speed
4 13 7 5 7 7 3 6 3 6 6 5 4 1 3 11 8 6 12 7 16 15 16 13 9 10 11 11 10 9 8 8 8 8 7 7 7 7 8 8 8 9 7 10 11 9 9 10 10
9 8 5 5 8 8 7 8 7 8 8 7 5 3 3 7 8 11 12 10 15 14 14 13 10 8 8 10 12 10 9 8 8 7 6 6 5 5 6 6 7 7 8 8 10 8 8 8 9
9 8 7 5 9 6 5 9 10 8 8 6 4 4 2 6 8 13 14 14 15 14 11 14 11 10 7 6 8 10 10 10 8 7 5 6 5 5 4 5 6 6 5 8 6 9 7 7 8
5 6 5 8 8 4 3 9 13 12 6 3 1 6 4 6 12 8 15 15 14 12 11 13 12 11 9 5 4 9 10 10 9 7 6 6 6 5 5 3 4 5 4 4 8 3 7 7 6
7 5 8 10 3 3 1 10 13 11 9 8 6 6 5 6 7 13 14 13 14 11 11 12 11 10 10 8 6 3 9 10 8 8 7 7 6 5 5 4 5 4 2 2 3 3 5 5 4
7 6 8 10 8 5 6 10 11 7 7 8 5 9 7 11 9 13 14 14 14 12 11 12 10 10 9 9 8 8 10 9 8 8 9 9 8 6 6 6 5 4 3 3 2 1 0 1 1
9 9 12 12 11 8 8 10 9 7 7 6 6 9 7 12 10 12 13 13 13 14 13 12 12 10 7 8 8 7 7 9 8 7 6 8 9 9 8 7 7 7 5 4 4 3 3 3 3
5 6 12 8 11 7 12 11 5 6 8 6 1 4 8 13 13 12 11 12 12 12 11 11 11 10 9 9 6 5 5 7 7 6 5 5 7 8 8 7 8 8 7 6 6 6 6 5 5
2 7 10 12 13 10 14 13 7 4 8 4 5 4 7 18 16 13 11 10 10 10 10 10 9 9 8 8 9 7 6 5 5 6 6 4 7 10 10 9 3 9 7 7 8 8 8 7 8
6 10 15 7 8 12 17 14 12 8 9 7 7 6 12 17 16 14 13 11 11 11 10 9 9 8 7 5 7 8 8 8 8 8 9 8 9 7 4 1 7 7 8 9 9 9 8 7 8
3 8 3 4 4 8 17 12 12 10 10 8 11 13 16 16 14 13 12 10 10 10 8 9 8 8 7 6 5 4 4 5 6 8 8 7 6 5 5 5 6 7 10 8 10 9 8 10 7
6 2 2 3 1 9 16 12 10 10 7 5 8 16 17 16 14 14 13 12 12 10 10 10 9 8 8 5 5 5 5 5 5 6 8 6 5 6 6 5 6 5 5 7 7 5 7 8 8
5 3 3 3 4 7 10 12 12 10 6 5 8 14 15 14 13 12 12 10 10 10 9 10 10 9 8 9 6 6 6 6 6 6 7 7 7 6 6 6 6 6 6 6 7 7 7 8 9
4 2 4 3 7 5 9 6 3 12 8 8 10 13 14 14 14 12 11 11 11 10 10 10 10 10 10 9 9 7 6 7 7 7 7 10 8 7 7 7 7 7 7 7 7 7 7 7 7
3 4 5 6 5 5 7 7 11 6 8 8 9 11 12 12 12 12 11 11 10 9 9 10 10 10 11 11 9 8 7 7 7 7 9 10 9 9 9 7 7 7 7 8 7 8 8 8 7
1 2 9 7 4 3 5 13 12 5 8 11 9 10 10 12 11 10 10 10 10 9 10 10 8 10 11 11 9 8 8 8 8 8 8 10 10 11 9 7 8 8 7 7 7 8 7 7 7
4 8 8 7 3 2 6 8 7 2 3 8 8 8 8 8 10 10 10 9 9 9 10 11 11 11 12 11 10 9 10 8 8 8 7 9 10 11 9 8 8 9 7 7 7 9 9 8 8
10 8 7 7 4 2 5 7 8 4 2 6 6 5 5 7 9 9 10 9 9 10 11 11 9 11 11 8 8 8 7 8 9 8 8 10 8 9 8 8 9 8 7 7 6 8 8 9 8
12 4 7 3 5 2 5 10 10 5 3 6 7 6 7 10 9 9 7 5 7 9 10 10 11 11 8 7 7 7 7 7 7 6 8 8 7 7 7 6 7 7 7 8 8 9 11 9 8
10 8 8 2 4 4 6 11 11 8 9 10 11 10 12 13 12 11 10 8 6 9 10 9 10 10 9 7 6 6 4 5 6 3 5 6 6 5 6 6 6 7 6 10 10 10 9 9 8
11 13 12 7 1 2 6 16 18 12 9 12 12 14 14 13 13 12 10 11 11 10 8 8 8 8 6 7 5 3 4 3 4 4 4 4 4 4 4 6 6 6 6 7 8 8 9 8 6
14 12 8 5 3 5 2 7 11 8 7 7 9 11 9 7 7 7 6 7 8 9 8 7 7 5 4 3 5 7 6 5 3 2 2 3 4 5 5 5 6 7 5 7 6 5 5 5 6
1 4 6 7 5 8 10 7 12 10 8 11 14 1 1 2 4 6 6 5 7 7 7 6 4 3 1 2 3 3 4 4 3 4 5 5 5 5 5 5 5 5 4 5 5 5 5 5 6
11 10 7 2 4 7 13 12 10 10 10 5 3 4 1 2 3 4 4 3 4 5 5 4 3 1 0 2 3 4 4 5 4 5 4 4 3 3 4 5 5 4 4 4 5 5 6 5 7
12 13 3 3 4 6 3 12 14 5 6 3 7 1 3 2 4 5 6 6 5 6 5 4 3 2 1 3 3 2 3 5 6 6 5 6 5 4 4 4 5 5 5 5 5 5 7 6 6
14 11 4 7 7 6 4 8 3 7 7 6 3 4 1 2 4 6 5 5 5 5 4 4 3 3 3 3 4 3 4 4 5 6 6 5 5 5 5 4 6 7 6 6 6 5 5 5 5
12 11 3 2 2 2 7 8 5 7 9 6 5 3 5 7 7 6 6 7 6 6 5 4 3 3 4 5 4 4 4 5 6 7 6 5 6 5 6 6 7 8 8 7 7 5 6 6 6
4 10 4 2 3 6 7 8 7 9 12 10 7 7 7 6 6 5 5 7 6 5 3 4 4 5 5 4 5 5 6 6 6 6 7 8 7 7 6 7 8 8 8 7 7 6 6 7 6
6 8 4 4 3 4 4 5 2 8 7 9 10 7 7 6 5 4 3 6 4 3 3 4 4 5 5 5 5 6 6 7 7 7 7 8 8 7 8 8 8 8 8 8 7 8 8 8 8
12 9 11 3 4 4 3 6 2 4 3 7 9 4 1 0 2 2 4 4 3 3 4 5 5 5 5 5 6 7 8 7 7 8 8 7 8 7 8 7 8 8 8 7 8 8 8 8 9
Wind_Direction
181 175 190 209 239 237 134 151 96 148 155 65 126 218 22 16 6 42 137 121 135 135 130 152 148 149 151 144 137 135 132 124 113 102 97 90 80 75 71 66 61 61 76 97 91 78 77 73 67
181 179 212 257 257 224 136 125 169 163 77 124 130 153 186 85 68 124 128 153 147 138 140 138 139 153 145 160 152 150 144 133 122 111 102 93 85 82 79 79 73 60 45 68 106 96 87 79 69
216 231 246 225 244 289 122 161 141 109 139 168 134 311 49 83 114 141 108 150 145 135 144 126 137 147 152 146 165 165 159 150 133 121 113 104 102 95 100 104 97 81 61 37 112 125 108 92 79
193 205 236 247 213 64 64 156 136 142 150 194 286 144 108 349 135 113 137 145 146 138 131 131 138 149 154 159 170 191 174 149 143 138 136 125 120 110 115 105 107 91 81 46 50 101 124 110 95
234 255 228 233 131 104 180 135 151 163 152 157 196 126 96 114 110 131 142 152 136 136 126 145 148 155 160 168 173 158 165 149 154 156 157 151 147 146 138 128 123 128 127 94 60 57 97 103 123
223 257 224 212 176 143 148 151 160 165 146 120 195 135 124 130 151 143 148 154 140 144 145 144 157 161 168 175 174 157 162 167 169 186 184 174 172 175 179 183 186 193 201 213 191 34 40 167 150
260 217 230 217 151 164 156 165 171 164 162 149 123 147 106 156 146 149 156 154 154 154 164 164 171 169 173 184 185 181 197 183 184 207 214 217 182 184 194 200 206 208 210 220 222 223 239 248 248
264 266 232 230 167 168 154 170 185 177 117 103 196 177 162 158 152 158 160 160 167 160 172 175 174 174 179 179 190 188 192 187 196 217 241 298 202 195 203 211 218 223 222 227 229 230 235 246 255
234 233 215 206 197 140 155 168 181 61 130 178 147 355 97 137 154 161 164 168 172 172 182 183 181 183 184 182 170 188 204 212 221 229 230 237 214 201 217 218 214 211 236 246 240 231 232 239 243
238 221 225 197 210 152 172 179 159 174 154 160 151 112 133 149 160 166 176 178 182 184 189 190 191 195 195 190 174 207 195 208 212 220 220 216 231 239 263 318 191 221 240 248 250 247 242 240 261
160 231 64 97 87 186 172 181 166 193 182 171 168 148 151 161 170 175 182 191 189 187 187 198 196 199 202 202 206 200 213 210 217 220 219 224 231 231 224 240 211 226 217 239 221 228 229 241 248
179 73 355 110 263 182 170 162 176 195 118 91 140 154 162 174 180 185 191 188 191 199 195 192 202 199 206 215 204 217 212 211 220 218 221 228 228 234 243 236 236 229 241 230 240 243 242 249 248
109 92 92 109 145 202 177 173 173 191 123 141 136 157 171 180 187 193 193 193 189 199 201 201 200 208 206 210 218 220 221 211 225 221 217 225 233 234 238 239 240 241 237 240 239 242 245 244 248
21 50 106 113 134 136 184 167 192 191 141 144 163 175 180 189 193 191 198 198 200 204 207 202 205 212 213 218 223 227 226 228 223 229 220 215 232 237 238 240 241 244 240 244 242 244 242 238 250
4 186 150 147 135 125 204 186 210 125 169 160 185 185 189 197 197 206 207 212 207 208 211 216 210 214 222 223 226 228 232 231 234 232 229 230 227 237 245 251 251 250 246 245 257 250 246 249 245
87 268 173 134 164 97 219 197 200 130 194 202 193 190 191 198 213 211 223 223 218 220 214 220 214 221 224 229 230 231 234 234 231 233 234 231 234 239 245 246 249 253 256 250 242 246 245 245 248
277 175 210 134 48 94 217 222 91 134 211 207 207 212 202 211 212 222 224 230 236 240 235 229 225 225 229 234 239 240 240 237 239 238 235 237 236 239 245 252 258 257 254 254 261 260 255 252 239
183 190 224 210 84 166 180 244 108 93 255 231 223 215 228 245 240 238 232 227 237 241 245 246 239 229 236 235 237 245 240 239 242 239 237 238 242 245 247 257 264 269 269 261 245 254 255 247 246
195 202 259 233 40 281 220 261 259 173 280 250 245 244 249 257 262 270 276 262 254 258 262 258 249 243 243 236 235 241 241 240 243 247 255 259 262 259 260 264 275 278 273 269 259 254 252 250 240
162 199 236 231 332 300 240 258 266 256 248 256 265 264 263 267 268 267 270 270 286 287 279 267 263 255 244 237 235 252 269 257 262 219 244 249 262 263 270 276 280 285 284 274 272 272 266 260 255
220 225 208 222 168 238 300 265 258 242 252 253 252 257 263 273 286 292 301 293 296 288 293 282 266 263 248 229 240 244 259 261 257 243 246 250 288 283 262 269 269 260 247 252 257 256 265 260 243
220 212 262 194 230 244 280 272 248 224 201 213 242 242 250 266 295 302 317 311 319 332 338 314 293 267 258 236 239 243 250 265 287 339 333 270 246 265 264 267 270 274 277 282 261 259 255 294 274
216 121 210 223 243 290 228 261 249 255 241 254 247 264 222 216 305 315 321 332 330 343 340 321 336 319 42 254 283 288 267 283 280 271 265 264 263 254 262 258 263 264 271 277 280 280 260 257 256
126 121 111 138 219 250 247 244 252 224 212 245 102 133 151 61 354 4 11 347 349 359 360 359 346 272 224 242 228 261 275 280 284 278 272 267 256 263 249 250 260 262 271 280 282 290 283 286 285
177 170 135 200 202 244 349 226 245 304 249 204 177 265 130 47 49 49 51 38 26 15 9 15 5 321 289 285 284 284 274 275 272 273 274 281 281 273 267 257 272 265 241 253 279 283 277 268 258
190 184 181 209 200 217 110 229 243 239 264 125 203 256 264 181 116 96 72 50 40 27 10 358 359 325 296 283 279 276 284 287 295 299 299 300 297 300 314 296 282 283 286 282 278 270 266 280 276
182 218 49 349 15 311 202 223 255 232 246 200 206 179 153 147 151 115 81 49 34 28 13 341 325 298 281 282 287 286 284 284 285 291 294 292 296 295 301 288 279 280 278 276 277 272 273 271 268
215 164 173 217 217 243 253 264 261 203 228 186 176 171 159 156 158 114 69 39 24 21 359 333 306 297 296 294 283 289 296 290 287 292 284 280 280 278 279 277 273 275 276 274 273 274 268 263 261
167 178 223 181 220 256 272 263 93 280 213 212 159 152 160 172 163 150 56 17 6 6 328 320 315 301 301 287 285 276 268 278 274 269 269 270 275 276 273 272 270 270 269 263 260 261 264 262 262
219 210 199 207 175 252 324 257 3 16 213 180 136 86 131 192 265 266 295 303 319 346 344 330 334 315 320 313 296 292 294 294 284 277 279 279 278 279 275 273 271 272 268 268 261 260 258 253 252